Regional Weather Roundup
Issued by NWS

Home | Current Version | Previous Version | Text Only | Print | Product List | Glossary On
Versions: 1 2 3 4 5 6 7 8 9 10 11 12 13 14 15 16 17 18 19 20 21 22 23 24 25 26 27 28 29 30 31 32 33 34 35 36 37 38 39 40 41 42 43 44 45 46 47 48 49 50
000
ASUS43 KOAX 230710
RWRNE

WEATHER ROUNDUP FOR NEBRASKA
NATIONAL WEATHER SERVICE OMAHA NE
200 AM CDT WED APR 23 2014

NOTES: SATELLITE DATA IS BEING USED TO AUGMENT CLOUD COVER ABOVE
       12000 FEET.
       "FAIR" INDICATES FEW OR NO CLOUDS BELOW 12,000 FEET WITH NO
       SIGNIFICANT WEATHER AND/OR OBSTRUCTIONS TO VISIBILITY.

  * THESE STATIONS DO NOT REPORT WEATHER SUCH AS RAIN...SNOW OR FOG.

NEZ001>004-019>022-054>056-230800-
NEBRASKA PANHANDLE

CITY           SKY/WX    TMP DP  RH WIND       PRES   REMARKS
SCOTTSBLUFF    CLOUDY    57  44  62 E13       29.55F
ALLIANCE       CLOUDY    59  43  55 SE20      29.58F
CHADRON        PTCLDY    61  42  49 SE25G35   29.49F
KIMBALL        CLOUDY    56  38  51 S10       29.59F
SIDNEY         MOCLDY    57  41  55 S16       29.61F
$$

NEZ057>060-069>072-079>082-230800-
SOUTHWEST NEBRASKA

CITY           SKY/WX    TMP DP  RH WIND       PRES   REMARKS
NORTH PLATTE   CLOUDY    60  39  45 SE17G29   29.69F
IMPERIAL       CLEAR     61  44  53 S24G32    29.65F
LEXINGTON      MOCLDY    58  35  42 SE18      29.76F
MCCOOK         PTCLDY    61  36  39 S28G44    29.69F
OGALLALA       MOCLDY    58  45  60 SE10G17   29.64F
$$

NEZ005>010-023>029-035>040-094-230800-
NORTH CENTRAL NEBRASKA

CITY           SKY/WX    TMP DP  RH WIND       PRES   REMARKS
VALENTINE      CLOUDY    56  33  42 E12       29.71F
AINSWORTH      MOCLDY    58  32  37 S23G32    29.70F
BROKEN BOW     MOCLDY    53  33  46 SE16      29.76F
O`NEILL        CLOUDY    56  29  35 SE16G26   29.79F
ORD            PTCLDY    56  31  38 SE13      29.80F
THEDFORD       PTCLDY    61  33  35 S22       29.69F
$$

NEZ041-046>049-061>064-073>077-083>087-230800-
SOUTH CENTRAL NEBRASKA

CITY           SKY/WX    TMP DP  RH WIND       PRES   REMARKS
GRAND ISLAND   PTCLDY    56  33  42 SE21G33   29.83F
AURORA         CLEAR     56  33  41 SE20G25   29.85F
HASTINGS       MOCLDY    57  31  37 SE18      29.82F
HEBRON         MOCLDY    58  32  38 SE15      29.88F
HOLDREGE       CLOUDY    58  32  38 S17       29.78F
KEARNEY *      MOCLDY    55  32  41 SE20G25   29.80F
YORK           CLOUDY    55  32  41 SE18      29.88S
$$

NEZ011>018-030>034-042>045-230800-
NORTHEAST NEBRASKA

CITY           SKY/WX    TMP DP  RH WIND       PRES   REMARKS
NORFOLK        MOCLDY    55  33  43 SE16G24   29.87F
ALBION         MOCLDY    55  31  40 SE17G23   29.86S
BLAIR          CLOUDY    56  33  41 SE13      29.96S
COLUMBUS *     PTCLDY    57  32  38 SE15G22   29.90F
FREMONT        MOCLDY    57  33  40 SE12      29.94F
TEKAMAH        CLOUDY    54  33  45 SE12      29.96S
$$

NEZ050>053-065>068-078-088>093-230800-
SOUTHEAST NEBRASKA

CITY           SKY/WX    TMP DP  RH WIND       PRES   REMARKS
LINCOLN        MOCLDY    60  33  36 SE18      29.94F
OMAHA EPPLEY   MOCLDY    57  34  41 SE10      29.97R
BEATRICE       MOCLDY    58  32  38 SE13      29.93S
FALLS CITY     CLEAR     51  36  56 SE12      29.95F
NEBRASKA CITY  MOCLDY    56  34  43 S7        29.99R
PLATTSMOUTH    PTCLDY    57  32  37 SE13      29.97S
$$

NEZ044-045-051>053-067-230800-
OMAHA AREA

CITY           SKY/WX    TMP DP  RH WIND       PRES   REMARKS
OMAHA EPPLEY   MOCLDY    57  34  41 SE10      29.97R
BLAIR          CLOUDY    56  33  41 SE13      29.96S
FREMONT        MOCLDY    57  33  40 SE12      29.94F
MILLARD        PTCLDY    56  35  44 SE6       29.96S
OFFUTT AFB     CLOUDY    55  37  49 SE10      29.98R
PLATTSMOUTH    PTCLDY    57  32  37 SE13      29.97S
WAHOO          CLOUDY    52  35  51 SE9       29.94F
$$



USA.gov is the U.S. government's official web portal to all federal, state and local government web resources and services.